EHI
0 0 0 0 0 0 0 0 0 0 0 0 0 0 0 0 0 0 0 0 0 0 0 0 0 0 0 0 0 0 0 0 0 0 0 0 0 0
0 0 0 0 0 0 0 0 0 0 0 0 0 0 0 0 0 0 0 0 0 0 0 0 0 0 0 0 0 0 0 0 0 0 0 0 0 0
0 0 0 0 0 0 0 0 0 0 0 0 0 0 0 0 0 0 0 0 0 0 0 0 0 0 0 0 0 0 0 0 0 0 0 0 0 0
0 0 0 0 0 0 0 0 0 0 0 0 0 0 0 0 0 0 0 0 0 0 0 0 0 0 0 0 0 0 0 0 0 0 0 0 0 0
0 0 0 0 0 0 0 0 0 0 0 0 0 0 0 0 0 0 0 0 0 0 0 0 0 0 0 0 0 0 0 0 0 0 0 0 0 0
0 0 0 0 0 0 0 0 0 0 0 0 0 0 0 0 0 0 0 0 0 0 0 0 0 0 0 0 0 0 0 0 0 0 0 0 0 0
0 0 0 0 0 0 0 0 0 0 0 0 0 0 0 0 0 0 0 0 0 0 0 0 0 0 0 0 0 0 0 0 0 0 0 0 0 0
0 0 0 0 0 0 0 0 0 0 0 0 0 0 0 0 0 0 0 0 0 0 0 0 0 0 0 0 0 0 0 0 0 0 0 0 0 0
0 0 0 0 0 0 0 0 0 0 0 0 0 0 0 0 0 0 0 0 0 0 0 0 0 0 0 0 0 0 0 0 0 0 0 0 0 0
0 0 0 0 0 0 0 0 0 0 0 0 0 0 0 0 0 0 0 0 0 0 0 0 0 0 0 0 0 0 0 0 0 0 0 0 0 0
0 0 0 0 0 0 0 0 0 0 0 0 0 0 0 0 0 0 0 0 0 0 0 0 0 0 0 0 0 0 0 0 0 0 0 0 0 0
0 0 0 0 0 0 0 0 0 0 0 0 0 0 0 0 0 0 0 0 0 0 0 0 0 0 0 0 0 0 0 0 0 0 0 0 0 0
0 0 0 0 0 0 0 0 0 0 0 0 0 0 0 0 0 0 0 0 0 0 0 0 0 0 0 0 0 0 0 0 0 0 0 0 0 0
0 0 0 0 0 0 0 0 0 0 0 0 0 0 0 0 0 0 0 0 0 0 0 0 0 0 0 0 0 0 0 0 0 0 0 0 0 0
0 0 0 0 0 0 0 0 0 0 0 0 0 0 0 0 0 0 0 0 0 0 0 0 0 0 0 0 0 0 0 0 0 0 0 0 0 0
0 0 0 0 0 0 0 0 0 0 0 0 0 0 0 0 0 0 0 0 0 0 0 0 0 0 0 0 0 0 0 0 0 0 0 0 0 0
0 0 0 0 0 0 0 0 0 0 0 0 0 0 0 0 0 0 0 0 0 0 0 0 0 0 0 0 0 0 0 0 0 0 0 0 0 0
0 0 0 0 0 0 0 0 0 0 0 0 0 0 0 0 0 0 0 0 0 0 0 0 0 0 0 0 0 0 0 0 0 0 0 0 0 0
0 0 0 0 0 0 0 0 0 0 0 0 0 0 0 0 0 0 0 0 0 0 0 0 0 0 0 0 0 0 0 0 0 0 0 0 0 0
0 0 0 0 0 0 0 0 0 0 0 0 0 0 0 0 0 0 0 0 0 0 0 0 0 0 0 0 0 0 0 0 0 0 0 0 0 0
0 0 0 0 0 0 0 0 0 0 0 0 0 0 0 0 0 0 0 0 0 0 0 0 0 0 0 0 0 0 0 0 0 0 0 0 0 0
0 0 0 0 0 0 0 0 0 0 0 0 0 0 0 0 0 0 0 0 0 0 0 0 0 0 0 0 0 0 0 0 0 0 0 0 0 0
0 0 0 0 0 0 0 0 0 0 0 0 0 0 0 0 0 0 0 0 0 0 0 0 0 0 0 0 0 0 0 0 0 0 0 0 0 0
Wind_Speed
7 7 6 4 4 4 4 4 4 5 6 4 4 4 4 5 5 8 9 11 14 16 17 18 19 19 20 20 21 21 21 21 21 22 22 22 22 23
5 6 6 4 4 4 4 4 5 6 6 5 5 5 5 6 8 9 10 13 15 16 17 18 19 19 20 20 21 21 21 21 21 22 22 22 22 22
6 7 7 6 4 4 4 4 5 6 8 8 6 6 8 9 8 8 9 10 10 15 17 18 19 19 19 20 20 21 21 21 21 21 22 22 22 22
8 7 7 5 6 5 4 6 6 6 7 10 8 7 9 9 9 10 9 8 10 13 17 18 19 19 19 19 20 20 20 20 20 21 22 22 21 22
7 7 7 7 7 5 6 6 5 6 7 8 9 7 7 7 9 9 10 9 10 11 15 16 17 18 18 19 19 19 19 19 20 20 20 20 21 21
7 7 6 7 7 7 6 6 6 6 7 7 8 7 7 7 7 8 8 8 8 9 11 12 14 17 18 18 18 18 18 19 19 19 19 19 19 20
6 6 6 6 7 6 5 5 6 6 6 6 7 7 7 7 7 7 9 9 9 8 8 8 9 9 10 13 14 15 17 18 18 19 19 20 19 19
6 6 5 6 7 8 9 9 7 7 7 7 7 8 9 9 8 7 8 9 9 6 8 9 8 9 9 9 13 16 17 18 18 18 19 18 18 19
5 5 4 4 6 6 7 9 9 10 10 9 9 10 10 9 9 9 9 9 10 9 9 10 9 10 9 9 15 16 17 17 18 18 18 18 18 19
4 4 4 4 4 4 5 6 7 7 8 8 8 9 8 8 8 8 9 10 10 8 8 9 9 9 9 9 12 14 16 16 17 17 18 18 18 18
3 3 4 4 4 5 5 6 7 6 6 9 10 10 11 11 9 6 7 7 9 8 6 7 8 10 10 9 8 12 14 15 16 17 17 17 17 17
3 3 3 4 4 5 5 5 6 7 6 6 7 8 8 8 9 7 6 7 8 7 5 6 8 8 8 6 7 8 9 12 14 15 15 15 15 11
2 2 2 4 5 5 6 5 6 7 6 6 6 6 5 5 5 5 5 6 7 7 6 6 6 7 7 8 8 8 8 8 9 10 11 13 15 13
2 2 1 3 4 5 5 6 7 7 4 5 5 5 5 5 5 6 6 6 7 8 8 7 6 7 8 9 9 8 8 8 8 8 8 11 13 14
2 2 2 3 4 4 5 6 6 4 4 5 5 5 5 6 6 5 6 5 7 7 6 7 7 7 7 8 9 9 9 8 7 7 8 8 9 8
2 1 2 2 3 4 4 4 3 3 4 5 5 5 5 5 5 5 6 5 6 6 5 6 7 8 8 9 9 9 9 7 7 8 8 9 8 8
1 1 2 2 2 3 3 3 3 3 4 4 5 5 5 5 5 5 5 5 6 6 6 5 5 6 8 8 8 8 8 8 8 8 9 9 8 8
2 2 2 3 3 3 3 3 3 4 4 4 4 5 5 5 5 5 5 5 6 6 6 6 6 6 5 5 7 8 7 8 8 8 8 9 9 8
3 3 3 3 3 3 3 4 4 4 4 4 4 4 5 5 5 5 5 5 6 6 6 5 5 5 7 8 4 4 7 8 8 8 7 8 9 9
3 3 3 3 3 3 4 4 4 4 4 4 4 4 4 5 5 5 5 5 6 6 6 5 4 5 6 7 7 7 8 8 8 8 8 8 8 10
3 3 3 3 3 3 4 4 4 4 4 4 4 4 4 5 5 5 5 7 6 5 6 6 5 7 6 6 7 7 7 8 9 8 8 8 8 7
3 3 3 3 3 4 4 4 4 4 4 4 4 4 4 4 5 6 5 5 5 5 6 6 5 5 4 5 7 8 8 8 9 11 10 8 6 6
3 3 3 4 4 4 4 4 5 4 4 4 4 4 4 4 5 5 5 5 5 5 5 6 5 4 5 6 7 7 9 9 7 7 6 7 10 12
Wind_Direction
210 213 218 217 218 225 231 238 255 276 279 271 263 257 267 274 280 279 283 288 290 291 293 295 295 296 296 296 296 296 296 297 296 295 294 294 293 292
205 209 215 220 219 219 225 234 240 255 271 283 278 282 281 279 280 281 283 289 282 287 291 293 294 294 294 294 295 295 296 296 296 296 295 295 295 295
203 212 218 218 221 222 224 229 237 245 263 277 280 282 283 282 283 283 286 286 286 287 291 293 294 294 295 294 294 295 295 296 296 296 296 296 296 297
208 213 217 213 223 224 227 232 239 243 259 275 282 283 281 283 287 288 288 286 286 290 290 291 293 294 294 294 295 295 297 297 297 297 296 297 297 297
209 213 216 215 225 226 231 240 246 251 255 269 280 286 287 288 291 290 290 290 291 290 288 288 290 292 293 294 296 298 298 298 298 297 296 297 297 296
212 215 216 219 230 233 235 244 252 257 261 268 277 285 290 294 293 293 294 292 292 292 289 291 292 292 291 292 295 297 299 300 300 299 299 298 297 297
213 215 220 227 238 240 243 249 251 257 264 269 276 283 285 292 293 297 294 299 297 295 297 296 295 292 293 293 294 297 299 300 301 300 300 299 298 297
216 220 223 225 236 244 251 255 256 260 265 270 276 279 285 292 297 296 297 300 299 301 299 297 295 291 293 295 302 304 302 302 302 302 302 301 301 300
219 223 226 231 239 249 253 254 256 258 262 272 278 280 288 293 296 294 292 293 293 300 299 293 294 292 296 296 299 300 302 304 305 306 305 303 303 302
222 228 234 239 240 253 259 262 265 263 267 270 277 283 290 296 293 291 293 293 292 292 293 292 298 299 301 297 298 300 302 303 304 306 305 305 306 305
218 224 234 244 251 254 257 264 273 276 275 278 286 290 294 295 298 297 296 294 295 297 294 287 298 304 300 295 300 302 301 301 304 305 306 307 308 307
212 217 231 253 263 255 261 267 275 286 293 291 287 287 288 288 288 285 287 288 294 295 300 298 299 310 301 297 306 307 304 304 306 305 305 306 308 305
214 222 232 251 263 263 268 273 286 296 292 289 288 290 293 292 290 288 282 280 284 284 297 303 298 300 291 299 303 302 304 307 307 304 302 304 306 304
217 227 233 248 265 270 274 292 297 295 290 289 289 292 295 295 294 292 288 282 277 280 287 291 287 293 295 296 296 302 308 306 304 303 304 306 303 300
214 232 256 262 269 269 279 290 292 287 288 287 289 293 298 300 300 298 296 289 284 280 282 283 283 287 285 286 291 298 305 306 303 305 307 306 303 302
208 217 245 265 274 287 289 282 284 289 291 289 294 299 303 302 299 300 301 302 299 296 291 289 289 287 283 284 287 292 298 298 304 306 306 302 300 298
214 237 252 261 269 275 282 285 288 289 288 293 297 299 301 300 301 302 299 297 294 299 306 306 298 288 278 278 283 289 298 301 303 307 307 303 302 302
216 237 248 258 268 277 283 287 287 290 294 296 295 296 298 299 300 302 299 295 296 300 305 312 315 309 296 266 244 279 295 303 307 307 302 301 303 306
229 241 250 259 267 273 278 281 284 289 293 291 291 294 295 296 296 298 297 297 298 301 305 308 309 309 309 312 294 252 296 306 306 304 303 302 302 305
231 242 252 258 263 269 274 280 285 288 287 288 289 290 291 292 292 293 293 296 299 303 304 302 302 303 299 301 301 297 293 296 302 304 306 304 298 295
238 245 251 257 263 269 274 278 282 284 287 287 285 287 288 288 288 290 291 294 295 297 301 303 306 303 292 286 287 293 301 301 298 296 302 305 308 310
242 249 255 259 264 267 271 274 277 278 281 280 283 285 285 284 284 285 287 291 291 293 297 301 305 300 292 290 298 304 309 315 308 297 285 278 295 310
246 252 257 259 261 264 266 269 272 275 276 278 280 281 282 282 282 281 284 285 290 293 297 302 306 302 297 296 300 304 310 316 318 318 311 308 300 292